Change the Weather History Date:

Saturday, December 1, 2012

  Actual Average Record
Temperature  
Mean Temperature 70 °F -  
Max Temperature 73 °F 78 °F 84 °F (1978)
Min Temperature 68 °F 69 °F 56 °F (1957)
Cooling Degree Days 6    
Growing Degree Days 20 (Base 50)    
Moisture  
Dew Point 64 °F    
Average Humidity 78    
Maximum Humidity 90    
Minimum Humidity 65    
Precipitation  
Precipitation 0.00 in - - ()
Sea Level Pressure  
Sea Level Pressure 30.12 in    
Wind  
Wind Speed 11 mph (NE)    
Max Wind Speed 17 mph    
Max Gust Speed 24 mph    
Visibility 10 miles    
Events      
Averages and records for this station are not official NWS values.
T = Trace of Precipitation, MM = Missing Value Source: NWS Daily Summary

Daily Weather History Graph

Daily Weather History Graph

Search for Another Location

Airport or City:

Trip Planner

Search our weather history database for the weather conditions in past years. The results will help you decide how hot, cold, wet, or windy it might be!

Date:

Astronomy

Dec. 01, 2012 Rise Set
Actual Time 6:54 AM EST 5:37 PM EST
Civil Twilight 6:29 AM EST 6:02 PM EST
Nautical Twilight 6:01 AM EST 6:30 PM EST
Astronomical Twilight 5:33 AM EST 6:58 PM EST
Moon 8:21 PM EST (12/1) 9:09 AM EST (12/1)
Length of Visible Light 11h 32m
Length of Day
10h 43m
Waning Gibbous, 92% of the Moon is Illuminated
Dec 1
Waning Gibbous
Dec 6
Last Quarter
Dec 13
New
Dec 20
First Quarter
Dec 28
Full

Hourly Weather History & Observations

Time (EST) Temp. Dew Point Humidity Pressure Visibility Wind Dir Wind Speed Gust Speed Precip Events Conditions
12:53 AM - - N/A% 30.11 in 10.0 mi NE 11.5 mph 18.4 mph N/A   Clear
1:53 AM - - N/A% 30.10 in 10.0 mi NE 11.5 mph - N/A   Overcast
2:53 AM - - N/A% 30.10 in 10.0 mi NE 11.5 mph - N/A   Overcast
3:53 AM - - N/A% 30.10 in 10.0 mi NE 10.4 mph - N/A   Mostly Cloudy
4:53 AM - - N/A% 30.09 in 10.0 mi NNE 10.4 mph - N/A   Overcast
5:53 AM - - N/A% 30.10 in 10.0 mi NE 10.4 mph - N/A   Overcast
5:58 AM 68.0 °F 64.4 °F 88% 30.10 in 10.0 mi NNE 11.5 mph - N/A   Mostly Cloudy
6:53 AM 68.0 °F 64.9 °F 90% 30.11 in 10.0 mi NE 9.2 mph 18.4 mph N/A   Mostly Cloudy
7:53 AM 68.0 °F 64.9 °F 90% 30.12 in 10.0 mi NE 11.5 mph - N/A   Mostly Cloudy
8:53 AM 69.8 °F 64.9 °F 84% 30.14 in 10.0 mi NE 12.7 mph 18.4 mph N/A   Scattered Clouds
9:53 AM 71.6 °F 64.9 °F 79% 30.16 in 10.0 mi NE 12.7 mph 18.4 mph N/A   Partly Cloudy
10:53 AM 71.6 °F 66.0 °F 82% 30.15 in 10.0 mi NE 10.4 mph - N/A   Partly Cloudy
11:53 AM 73.4 °F 66.9 °F 80% 30.15 in 10.0 mi NNE 9.2 mph 19.6 mph N/A   Clear
12:53 PM 73.4 °F 66.0 °F 78% 30.13 in 10.0 mi NNE 17.3 mph - N/A   Partly Cloudy
1:53 PM 73.4 °F 66.9 °F 80% 30.11 in 10.0 mi ENE 11.5 mph 18.4 mph N/A   Partly Cloudy
3:53 PM 73.4 °F 64.0 °F 72% 30.10 in 10.0 mi ENE 17.3 mph 24.2 mph N/A   Scattered Clouds
4:53 PM 73.4 °F 62.1 °F 68% 30.10 in 10.0 mi ENE 17.3 mph 24.2 mph N/A   Scattered Clouds
5:53 PM 73.4 °F 62.1 °F 68% 30.11 in 10.0 mi ENE 13.8 mph - N/A   Scattered Clouds
7:53 PM 73.4 °F 61.0 °F 65% 30.14 in 10.0 mi ENE 9.2 mph - N/A   Scattered Clouds
8:53 PM 71.6 °F 61.0 °F 69% 30.16 in 10.0 mi NE 9.2 mph - N/A   Scattered Clouds
9:53 PM 69.8 °F 61.0 °F 73% 30.16 in 10.0 mi NE 6.9 mph - N/A   Scattered Clouds
10:53 PM - - N/A% 30.16 in 10.0 mi NE 8.1 mph - N/A   Clear
11:53 PM - - N/A% 30.15 in 10.0 mi NNE 9.2 mph - N/A   Clear